CAPE
0 0 0 0 0 0 0 0 0 0 0 0 0 0 0 0 0 0 1 0 0 0
0 0 0 0 0 0 0 0 0 0 0 0 0 0 0 0 0 0 0 0 0 0
0 0 0 0 0 0 0 0 0 0 0 0 0 0 0 0 0 0 0 0 0 0
0 0 0 0 0 0 0 0 0 0 0 0 0 0 0 0 0 0 0 0 0 0
0 0 0 0 0 0 0 0 0 0 0 0 0 0 0 0 0 0 0 0 0 0
0 0 0 0 0 0 0 0 0 0 0 0 0 0 0 0 0 0 0 0 0 0
0 0 0 0 0 0 0 0 0 0 0 0 0 0 0 0 0 0 0 0 0 0
0 0 0 0 0 0 0 0 0 0 0 0 0 0 0 0 0 0 0 0 0 0
0 0 0 0 0 0 0 0 0 0 0 0 0 0 0 0 0 0 0 0 0 0
0 0 0 0 0 0 0 0 0 0 0 0 0 0 0 0 0 0 0 0 0 0
0 0 0 0 0 0 0 0 0 0 0 0 0 0 0 0 0 0 0 0 0 0
0 0 0 0 0 0 0 0 0 0 0 0 0 0 1 0 0 0 0 0 0 0
0 0 0 0 0 0 0 0 0 0 0 0 0 0 3 19 0 0 0 0 0 0
0 0 0 0 0 0 0 0 0 0 0 0 0 0 0 13 0 0 0 0 0 0
CIN
0 0 0 0 0 0 0 0 0 0 0 0 0 0 0 0 0 0 -4 -1 0 0
0 0 0 0 0 0 0 0 0 0 0 0 0 0 0 0 0 0 0 0 0 0
0 0 0 0 0 0 0 0 0 0 0 0 0 0 0 0 0 0 0 0 0 0
0 0 0 0 0 0 0 0 0 0 0 0 0 0 0 0 0 0 0 0 0 0
0 0 0 0 0 0 0 0 0 0 0 0 0 0 0 0 0 0 0 0 0 0
0 0 0 0 0 0 0 0 0 0 0 0 0 0 0 0 0 0 0 0 0 0
0 0 0 0 0 0 0 0 0 0 0 0 0 0 0 0 0 0 0 0 0 0
0 0 0 0 0 0 0 0 0 0 0 0 0 0 0 0 0 0 0 0 0 0
0 0 0 0 0 0 0 0 0 0 0 0 0 0 0 0 0 0 0 0 0 0
0 0 0 0 0 0 0 0 0 0 0 0 0 0 0 0 0 0 0 0 0 0
0 0 0 0 0 0 0 0 0 0 0 0 0 0 0 0 0 0 0 0 0 0
0 0 0 0 0 0 0 0 0 0 0 0 0 0 0 0 0 0 0 0 0 0
0 0 0 0 0 0 0 0 0 0 0 0 0 0 0 0 0 0 0 0 0 0
0 0 0 0 0 0 0 0 0 0 0 0 0 0 0 0 0 0 0 0 0 0
Wind_Speed
7 5 5 5 4 4 3 3 2 3 2 3 3 4 5 3 3 4 3 3 2 2
6 6 6 6 5 3 4 3 4 3 2 3 2 2 2 1 3 3 3 3 3 2
7 6 6 5 6 6 5 4 4 4 4 3 3 2 1 1 1 1 1 2 5 4
7 7 7 6 6 6 5 5 6 5 4 4 3 3 1 2 2 3 3 2 4 4
7 6 7 7 7 6 7 6 6 6 5 5 5 4 4 3 2 4 4 4 3 2
8 7 8 8 7 7 7 6 6 5 6 5 5 4 3 3 3 4 4 4 4 3
8 9 9 8 8 7 7 7 7 6 5 5 4 5 4 3 3 4 5 5 5 5
8 7 7 7 8 7 7 8 7 6 6 5 5 4 5 5 4 5 4 3 3 4
6 6 8 8 8 8 9 8 7 7 8 7 6 13 12 8 5 5 5 5 4 2
6 7 7 7 7 8 9 7 9 8 8 9 8 16 15 12 5 5 5 5 4 3
5 6 6 6 8 8 6 10 9 9 8 7 6 15 16 12 5 5 5 5 5 5
5 6 6 7 7 8 6 8 9 7 9 9 7 14 14 9 3 5 5 4 5 5
6 6 7 7 7 5 6 9 7 8 8 13 8 12 13 10 4 5 3 4 4 10
7 6 7 7 4 5 7 5 6 7 6 7 7 6 9 15 5 4 2 3 3 3
Wind_Direction
215 210 216 215 209 219 213 229 240 277 308 326 338 344 344 335 335 319 29 38 92 102
216 213 217 221 216 217 213 223 224 245 274 299 310 327 350 350 342 356 32 22 30 48
214 214 219 219 226 226 228 227 229 234 235 245 239 240 198 235 248 92 42 90 75 39
214 209 207 209 214 217 217 219 228 239 251 258 260 266 268 248 199 144 122 119 116 121
223 211 216 215 214 209 213 215 221 228 232 235 229 216 212 226 221 186 171 166 141 132
222 211 218 218 211 207 208 213 218 221 229 236 235 218 227 222 211 206 203 185 181 188
227 219 219 214 209 205 202 203 208 214 222 229 226 200 211 214 221 209 195 189 192 193
239 219 214 213 210 205 200 206 202 201 206 211 203 201 202 212 223 216 201 188 189 203
250 230 226 222 212 202 207 198 194 203 204 208 207 201 204 191 203 209 205 200 208 233
261 246 240 228 210 214 209 193 204 201 199 214 211 210 207 203 195 199 211 213 208 222
276 273 264 231 223 219 194 203 205 206 205 212 216 223 212 209 185 211 222 226 221 216
288 276 273 252 237 226 204 209 202 195 194 196 208 223 221 211 182 237 237 238 233 219
302 283 274 260 247 229 222 224 209 205 191 200 197 203 209 220 202 241 250 264 246 238
297 286 271 271 243 226 216 205 198 197 183 186 171 165 196 233 190 211 226 252 250 253